Change the Weather History Date:

Tuesday, September 24, 2013

  Actual Average Record
Temperature  
Mean Temperature 56 °F -  
Max Temperature 64 °F 57 °F 84 °F (2007)
Min Temperature 48 °F 45 °F 42 °F (2000)
Degree Days  
Heating Degree Days 9    
Growing Degree Days 6 (Base 50)    
Moisture  
Dew Point 49 °F    
Average Humidity 79    
Maximum Humidity 93    
Minimum Humidity 63    
Precipitation  
Precipitation 0.00 in - - ()
Sea Level Pressure  
Sea Level Pressure 30.03 in    
Wind  
Wind Speed 8 mph (SW)    
Max Wind Speed 12 mph    
Max Gust Speed 18 mph    
Averages and records for this station are not official NWS values.
T = Trace of Precipitation, MM = Missing Value Source: NWS Daily Summary

Daily Weather History Graph

Daily Weather History Graph

Search for Another Location

Airport or City:

Trip Planner

Search our weather history database for the weather conditions in past years. The results will help you decide how hot, cold, wet, or windy it might be!

Date:

Astronomy

Sep. 24, 2013 Rise Set
Actual Time 7:41 AM EDT 7:44 PM EDT
Civil Twilight 7:10 AM EDT 8:15 PM EDT
Nautical Twilight 6:34 AM EDT 8:51 PM EDT
Astronomical Twilight 5:57 AM EDT 9:27 PM EDT
Moon 10:40 PM EDT (9/24) 1:16 PM EDT (9/24)
Length of Visible Light 13h 04m
Length of Day
12h 03m
Waning Gibbous, 73% of the Moon is Illuminated
Sep 24
Waning Gibbous
Sep 26
Last Quarter
Oct 4
New
Oct 11
First Quarter
Oct 18
Full

Hourly Weather History & Observations

Time (EDT) Temp. Dew Point Humidity Pressure Visibility Wind Dir Wind Speed Gust Speed Precip Events Conditions
12:51 AM 53.1 °F 48.9 °F 86% 30.03 in - SW 10.4 mph 17.3 mph N/A   Unknown
1:51 AM 53.1 °F 48.9 °F 86% 30.03 in - SW 9.2 mph 17.3 mph N/A   Unknown
2:51 AM 52.0 °F 48.9 °F 89% 30.03 in - WSW 9.2 mph 17.3 mph N/A   Unknown
3:51 AM 51.1 °F 46.9 °F 86% 30.04 in - WSW 10.4 mph - N/A   Unknown
4:51 AM 50.0 °F 46.9 °F 89% 30.06 in - SW 8.1 mph - N/A   Unknown
5:51 AM 50.0 °F 46.9 °F 89% 30.06 in - WSW 8.1 mph - N/A   Unknown
6:51 AM 48.9 °F 45.0 °F 86% 30.06 in - SW 9.2 mph - N/A   Unknown
7:51 AM 48.9 °F 45.0 °F 86% 30.07 in - SW 9.2 mph - N/A   Unknown
8:51 AM 52.0 °F 46.9 °F 83% 30.06 in - SW 9.2 mph 17.3 mph N/A   Unknown
9:51 AM 55.0 °F 48.0 °F 77% 30.06 in - WSW 9.2 mph 18.4 mph N/A   Unknown
10:51 AM 57.9 °F 48.0 °F 70% 30.05 in - WSW 11.5 mph 17.3 mph N/A   Unknown
11:51 AM 61.0 °F 50.0 °F 67% 30.05 in - Variable 5.8 mph - N/A   Unknown
12:51 PM 62.1 °F 51.1 °F 67% 30.04 in - Variable 4.6 mph - N/A   Unknown
1:51 PM 63.0 °F 51.1 °F 65% 30.03 in - SW 4.6 mph - N/A   Unknown
2:51 PM 64.0 °F 51.1 °F 63% 30.02 in - South 4.6 mph - N/A   Unknown
3:51 PM 64.0 °F 51.1 °F 63% 30.01 in - Variable 4.6 mph - N/A   Unknown
4:51 PM 63.0 °F 52.0 °F 67% 30.01 in - SSW 5.8 mph - N/A   Unknown
5:51 PM 62.1 °F 51.1 °F 67% 30.01 in - Variable 5.8 mph - N/A   Unknown
6:51 PM 60.1 °F 51.1 °F 72% 30.01 in - Calm Calm - N/A   Unknown
7:51 PM 57.0 °F 51.1 °F 81% 30.01 in - Variable 4.6 mph - N/A   Unknown
8:51 PM 55.0 °F 51.1 °F 86% 30.00 in - WSW 3.5 mph - N/A   Unknown
9:51 PM 55.0 °F 52.0 °F 89% 30.00 in - Calm Calm - N/A   Unknown
10:51 PM 54.0 °F 52.0 °F 93% 30.00 in - Calm Calm - N/A   Unknown
11:51 PM 54.0 °F 52.0 °F 93% 29.99 in - Calm Calm - N/A   Unknown